Time,TemperatureF,DewpointF,PressureIn,WindDirection,WindDirectionDegrees,WindSpeedMPH,WindSpeedGustMPH,Humidity,HourlyPrecipIn,Conditions,Clouds,dailyrainin,SoftwareType,DateUTC
2013-04-09 00:00:00,41.2,28.0,29.77,WNW,293,0.0,0.0,59,0.00,,,0.00,WUHU21636XXSP,2013-04-08 22:00:00,
2013-04-09 00:05:00,41.2,28.0,29.77,WNW,293,0.0,0.0,59,0.00,,,0.00,WUHU21636XXSP,2013-04-08 22:05:00,
2013-04-09 00:10:00,41.2,28.0,29.77,WNW,293,0.0,0.0,59,0.00,,,0.00,WUHU21636XXSP,2013-04-08 22:10:00,
2013-04-09 00:15:00,41.2,28.4,29.77,WNW,293,2.5,2.5,60,0.00,,,0.00,WUHU21636XXSP,2013-04-08 22:15:00,
2013-04-09 00:20:00,41.2,28.4,29.77,ESE,113,1.1,2.5,60,0.00,,,0.00,WUHU21636XXSP,2013-04-08 22:20:00,
2013-04-09 00:25:00,41.2,28.4,29.76,WNW,293,0.0,2.5,60,0.00,,,0.00,WUHU21636XXSP,2013-04-08 22:25:00,
2013-04-09 00:30:00,41.2,28.4,29.76,SE,135,0.0,1.1,60,0.00,,,0.00,WUHU21636XXSP,2013-04-08 22:30:00,
2013-04-09 00:35:00,40.8,28.0,29.76,West,270,0.0,0.0,60,0.00,,,0.00,WUHU21636XXSP,2013-04-08 22:35:00,
2013-04-09 00:40:00,40.8,28.5,29.76,WNW,293,2.2,2.2,61,0.00,,,0.00,WUHU21636XXSP,2013-04-08 22:40:00,
2013-04-09 00:45:00,40.8,28.5,29.76,WNW,293,0.0,2.2,61,0.00,,,0.00,WUHU21636XXSP,2013-04-08 22:45:00,
2013-04-09 00:50:00,40.8,28.5,29.76,WNW,293,1.6,2.2,61,0.00,,,0.00,WUHU21636XXSP,2013-04-08 22:50:00,
2013-04-09 00:55:00,40.6,28.3,29.76,ESE,113,0.9,1.6,61,0.00,,,0.00,WUHU21636XXSP,2013-04-08 22:55:00,
2013-04-09 01:00:00,40.6,28.3,29.76,WNW,293,1.1,1.6,61,0.00,,,0.00,WUHU21636XXSP,2013-04-08 23:00:00,
2013-04-09 01:05:00,40.6,28.3,29.76,WNW,293,1.8,1.8,61,0.00,,,0.00,WUHU21636XXSP,2013-04-08 23:05:00,
2013-04-09 01:10:00,40.6,28.7,29.76,WNW,293,0.0,1.8,62,0.00,,,0.00,WUHU21636XXSP,2013-04-08 23:10:00,
2013-04-09 01:15:00,40.3,28.4,29.76,WNW,293,0.0,1.8,62,0.00,,,0.00,WUHU21636XXSP,2013-04-08 23:15:00,
2013-04-09 01:20:00,40.3,28.4,29.76,WNW,293,0.0,0.0,62,0.00,,,0.00,WUHU21636XXSP,2013-04-08 23:20:00,
2013-04-09 01:25:00,40.3,28.4,29.76,WNW,293,0.0,0.0,62,0.00,,,0.00,WUHU21636XXSP,2013-04-08 23:25:00,
2013-04-09 01:30:00,40.3,28.8,29.76,WNW,293,0.0,0.0,63,0.00,,,0.00,WUHU21636XXSP,2013-04-08 23:30:00,
2013-04-09 01:35:00,40.3,28.8,29.76,WNW,293,0.0,0.0,63,0.00,,,0.00,WUHU21636XXSP,2013-04-08 23:35:00,
2013-04-09 01:40:00,40.3,28.8,29.76,SE,135,0.0,0.0,63,0.00,,,0.00,WUHU21636XXSP,2013-04-08 23:40:00,
2013-04-09 01:45:00,40.1,28.6,29.76,WNW,293,0.7,0.7,63,0.00,,,0.00,WUHU21636XXSP,2013-04-08 23:45:00,
2013-04-09 01:50:00,40.1,28.6,29.76,WNW,293,0.0,0.7,63,0.00,,,0.00,WUHU21636XXSP,2013-04-08 23:50:00,
2013-04-09 01:55:00,40.1,29.0,29.75,WNW,293,0.0,0.7,64,0.00,,,0.00,WUHU21636XXSP,2013-04-08 23:55:00,
2013-04-09 02:00:00,40.1,29.0,29.75,WNW,293,0.0,0.0,64,0.00,,,0.00,WUHU21636XXSP,2013-04-09 00:00:00,
2013-04-09 02:05:00,40.1,29.0,29.75,WNW,293,0.0,0.0,64,0.00,,,0.00,WUHU21636XXSP,2013-04-09 00:05:00,
2013-04-09 02:10:00,39.9,28.8,29.75,WNW,293,0.0,0.0,64,0.00,,,0.00,WUHU21636XXSP,2013-04-09 00:10:00,
2013-04-09 02:15:00,39.9,28.8,29.75,West,270,0.0,0.0,64,0.00,,,0.00,WUHU21636XXSP,2013-04-09 00:15:00,
2013-04-09 02:20:00,39.9,28.8,29.75,WNW,293,0.0,0.0,64,0.00,,,0.00,WUHU21636XXSP,2013-04-09 00:20:00,
2013-04-09 02:25:00,39.9,28.8,29.75,SE,135,0.4,0.4,64,0.00,,,0.00,WUHU21636XXSP,2013-04-09 00:25:00,
2013-04-09 02:30:00,39.9,28.8,29.75,SE,135,0.0,0.4,64,0.00,,,0.00,WUHU21636XXSP,2013-04-09 00:30:00,
2013-04-09 02:35:00,39.9,28.8,29.75,SE,135,0.0,0.4,64,0.00,,,0.00,WUHU21636XXSP,2013-04-09 00:35:00,
2013-04-09 02:40:00,39.7,28.6,29.75,SE,135,0.0,0.0,64,0.00,,,0.00,WUHU21636XXSP,2013-04-09 00:40:00,
2013-04-09 02:45:00,39.7,28.6,29.75,SE,135,0.0,0.0,64,0.00,,,0.00,WUHU21636XXSP,2013-04-09 00:45:00,
2013-04-09 02:50:00,39.7,28.6,29.75,SE,135,0.0,0.0,64,0.00,,,0.00,WUHU21636XXSP,2013-04-09 00:50:00,
2013-04-09 02:55:00,39.7,28.6,29.75,SE,135,0.0,0.0,64,0.00,,,0.00,WUHU21636XXSP,2013-04-09 00:55:00,
2013-04-09 03:00:00,39.7,28.6,29.75,WNW,293,0.0,0.0,64,0.00,,,0.00,WUHU21636XXSP,2013-04-09 01:00:00,
2013-04-09 03:05:00,39.6,28.5,29.75,WNW,293,0.0,0.0,64,0.00,,,0.00,WUHU21636XXSP,2013-04-09 01:05:00,
2013-04-09 03:10:00,39.6,28.5,29.75,WNW,293,0.0,0.0,64,0.00,,,0.00,WUHU21636XXSP,2013-04-09 01:10:00,
2013-04-09 03:15:00,39.6,28.5,29.75,WNW,293,0.0,0.0,64,0.00,,,0.00,WUHU21636XXSP,2013-04-09 01:15:00,
2013-04-09 03:20:00,39.4,28.3,29.75,WNW,293,0.0,0.0,64,0.00,,,0.00,WUHU21636XXSP,2013-04-09 01:20:00,
2013-04-09 03:25:00,39.4,28.3,29.75,WNW,293,0.0,0.0,64,0.00,,,0.00,WUHU21636XXSP,2013-04-09 01:25:00,
2013-04-09 03:30:00,39.4,28.7,29.75,WNW,293,0.0,0.0,65,0.00,,,0.00,WUHU21636XXSP,2013-04-09 01:30:00,
2013-04-09 03:35:00,39.4,28.7,29.75,WNW,293,0.0,0.0,65,0.00,,,0.00,WUHU21636XXSP,2013-04-09 01:35:00,
2013-04-09 03:40:00,39.2,28.5,29.75,WNW,293,0.0,0.0,65,0.00,,,0.00,WUHU21636XXSP,2013-04-09 01:40:00,
2013-04-09 03:45:00,39.2,28.5,29.75,WNW,293,0.0,0.0,65,0.00,,,0.00,WUHU21636XXSP,2013-04-09 01:45:00,
2013-04-09 03:50:00,39.2,28.5,29.75,WNW,293,0.0,0.0,65,0.00,,,0.00,WUHU21636XXSP,2013-04-09 01:50:00,
2013-04-09 03:55:00,39.2,28.9,29.74,WNW,293,0.0,0.0,66,0.00,,,0.00,WUHU21636XXSP,2013-04-09 01:55:00,
2013-04-09 04:00:00,39.2,28.9,29.74,WNW,293,0.0,0.0,66,0.00,,,0.00,WUHU21636XXSP,2013-04-09 02:00:00,
2013-04-09 04:05:00,39.0,28.7,29.74,WNW,293,0.0,0.0,66,0.00,,,0.00,WUHU21636XXSP,2013-04-09 02:05:00,
2013-04-09 04:10:00,39.0,28.7,29.74,WNW,293,0.0,0.0,66,0.00,,,0.00,WUHU21636XXSP,2013-04-09 02:10:00,
2013-04-09 04:15:00,39.0,28.7,29.74,WNW,293,0.0,0.0,66,0.00,,,0.00,WUHU21636XXSP,2013-04-09 02:15:00,
2013-04-09 04:20:00,39.0,28.7,29.74,WNW,293,0.0,0.0,66,0.00,,,0.00,WUHU21636XXSP,2013-04-09 02:20:00,
2013-04-09 04:25:00,39.0,28.7,29.74,WNW,293,0.0,0.0,66,0.00,,,0.00,WUHU21636XXSP,2013-04-09 02:25:00,
2013-04-09 04:30:00,39.0,28.7,29.74,WNW,293,0.0,0.0,66,0.00,,,0.00,WUHU21636XXSP,2013-04-09 02:30:00,
2013-04-09 04:35:00,39.0,28.7,29.74,WNW,293,0.0,0.0,66,0.00,,,0.00,WUHU21636XXSP,2013-04-09 02:35:00,
2013-04-09 04:40:00,39.0,28.7,29.74,WNW,293,0.0,0.0,66,0.00,,,0.00,WUHU21636XXSP,2013-04-09 02:40:00,
2013-04-09 04:45:00,39.0,28.7,29.74,WNW,293,0.0,0.0,66,0.00,,,0.00,WUHU21636XXSP,2013-04-09 02:45:00,
2013-04-09 04:50:00,38.8,28.5,29.74,WNW,293,0.0,0.0,66,0.00,,,0.00,WUHU21636XXSP,2013-04-09 02:50:00,
2013-04-09 04:55:00,38.8,28.5,29.74,WNW,293,0.0,0.0,66,0.00,,,0.00,WUHU21636XXSP,2013-04-09 02:55:00,
2013-04-09 05:00:00,38.8,28.5,29.74,WNW,293,0.0,0.0,66,0.00,,,0.00,WUHU21636XXSP,2013-04-09 03:00:00,
2013-04-09 05:05:00,38.8,28.5,29.74,WNW,293,0.0,0.0,66,0.00,,,0.00,WUHU21636XXSP,2013-04-09 03:05:00,
2013-04-09 05:10:00,38.8,28.5,29.74,WNW,293,0.0,0.0,66,0.00,,,0.00,WUHU21636XXSP,2013-04-09 03:10:00,
2013-04-09 05:15:00,38.8,28.9,29.74,WNW,293,0.0,0.0,67,0.00,,,0.00,WUHU21636XXSP,2013-04-09 03:15:00,
2013-04-09 05:20:00,38.8,28.9,29.74,WNW,293,0.0,0.0,67,0.00,,,0.00,WUHU21636XXSP,2013-04-09 03:20:00,
2013-04-09 05:25:00,38.7,28.8,29.74,WNW,293,0.0,0.0,67,0.00,,,0.00,WUHU21636XXSP,2013-04-09 03:25:00,
2013-04-09 05:30:00,38.5,28.6,29.74,WNW,293,0.0,0.0,67,0.00,,,0.00,WUHU21636XXSP,2013-04-09 03:30:00,
2013-04-09 05:35:00,38.5,28.9,29.74,WNW,293,0.0,0.0,68,0.00,,,0.00,WUHU21636XXSP,2013-04-09 03:35:00,
2013-04-09 05:40:00,38.5,28.9,29.74,WNW,293,0.0,0.0,68,0.00,,,0.00,WUHU21636XXSP,2013-04-09 03:40:00,
2013-04-09 05:45:00,38.5,28.9,29.74,WNW,293,0.0,0.0,68,0.00,,,0.00,WUHU21636XXSP,2013-04-09 03:45:00,
2013-04-09 05:50:00,38.3,28.7,29.74,WNW,293,0.0,0.0,68,0.00,,,0.00,WUHU21636XXSP,2013-04-09 03:50:00,
2013-04-09 05:55:00,38.3,28.7,29.74,WNW,293,0.0,0.0,68,0.00,,,0.00,WUHU21636XXSP,2013-04-09 03:55:00,
2013-04-09 06:00:00,38.3,28.7,29.74,WNW,293,0.0,0.0,68,0.00,,,0.00,WUHU21636XXSP,2013-04-09 04:00:00,
2013-04-09 06:05:00,38.3,28.7,29.74,WNW,293,0.0,0.0,68,0.00,,,0.00,WUHU21636XXSP,2013-04-09 04:05:00,
2013-04-09 06:10:00,38.1,28.9,29.74,WNW,293,0.0,0.0,69,0.00,,,0.00,WUHU21636XXSP,2013-04-09 04:10:00,
2013-04-09 06:15:00,38.1,28.9,29.74,WNW,293,0.7,0.7,69,0.00,,,0.00,WUHU21636XXSP,2013-04-09 04:15:00,
2013-04-09 06:20:00,38.3,29.1,29.74,WNW,293,0.0,0.7,69,0.00,,,0.00,WUHU21636XXSP,2013-04-09 04:20:00,
2013-04-09 06:25:00,38.1,28.9,29.74,WNW,293,0.0,0.7,69,0.00,,,0.00,WUHU21636XXSP,2013-04-09 04:25:00,
2013-04-09 06:30:00,38.1,28.9,29.74,WNW,293,0.0,0.0,69,0.00,,,0.00,WUHU21636XXSP,2013-04-09 04:30:00,
2013-04-09 06:35:00,38.1,28.9,29.74,WNW,293,1.8,1.8,69,0.00,,,0.00,WUHU21636XXSP,2013-04-09 04:35:00,
2013-04-09 06:40:00,38.1,28.9,29.74,WNW,293,0.0,1.8,69,0.00,,,0.00,WUHU21636XXSP,2013-04-09 04:40:00,
2013-04-09 06:45:00,37.9,28.7,29.74,WNW,293,0.0,1.8,69,0.00,,,0.00,WUHU21636XXSP,2013-04-09 04:45:00,
2013-04-09 06:50:00,37.9,28.7,29.74,WNW,293,1.3,1.3,69,0.00,,,0.00,WUHU21636XXSP,2013-04-09 04:50:00,
2013-04-09 06:55:00,38.1,28.9,29.74,WNW,293,0.0,1.3,69,0.00,,,0.00,WUHU21636XXSP,2013-04-09 04:55:00,
2013-04-09 07:00:00,38.1,28.9,29.74,WNW,293,0.0,1.3,69,0.00,,,0.00,WUHU21636XXSP,2013-04-09 05:00:00,
2013-04-09 07:05:00,38.1,29.3,29.74,WNW,293,0.9,0.9,70,0.00,,,0.00,WUHU21636XXSP,2013-04-09 05:05:00,
2013-04-09 07:10:00,38.1,29.3,29.75,WNW,293,0.0,0.9,70,0.00,,,0.00,WUHU21636XXSP,2013-04-09 05:10:00,
2013-04-09 07:15:00,38.1,29.3,29.75,WNW,293,1.8,1.8,70,0.00,,,0.00,WUHU21636XXSP,2013-04-09 05:15:00,
2013-04-09 07:20:00,38.1,29.3,29.75,WNW,293,0.4,1.8,70,0.00,,,0.00,WUHU21636XXSP,2013-04-09 05:20:00,
2013-04-09 07:25:00,37.9,29.1,29.75,WNW,293,0.0,1.8,70,0.00,,,0.00,WUHU21636XXSP,2013-04-09 05:25:00,
2013-04-09 07:30:00,37.9,29.4,29.75,WNW,293,0.0,0.4,71,0.00,,,0.00,WUHU21636XXSP,2013-04-09 05:30:00,
2013-04-09 07:35:00,37.9,29.4,29.75,WNW,293,0.0,0.0,71,0.00,,,0.00,WUHU21636XXSP,2013-04-09 05:35:00,
2013-04-09 07:40:00,38.1,29.6,29.75,WNW,293,0.0,0.0,71,0.00,,,0.00,WUHU21636XXSP,2013-04-09 05:40:00,
2013-04-09 07:45:00,38.1,29.6,29.75,WNW,293,0.0,0.0,71,0.00,,,0.00,WUHU21636XXSP,2013-04-09 05:45:00,
2013-04-09 07:50:00,38.1,29.6,29.75,WNW,293,0.0,0.0,71,0.00,,,0.00,WUHU21636XXSP,2013-04-09 05:50:00,
2013-04-09 07:55:00,38.3,29.8,29.75,WNW,293,0.0,0.0,71,0.00,,,0.00,WUHU21636XXSP,2013-04-09 05:55:00,
2013-04-09 08:00:00,38.3,29.8,29.75,WNW,293,0.0,0.0,71,0.00,,,0.00,WUHU21636XXSP,2013-04-09 06:00:00,
2013-04-09 08:05:00,38.5,30.0,29.75,WNW,293,0.0,0.0,71,0.00,,,0.00,WUHU21636XXSP,2013-04-09 06:05:00,
2013-04-09 08:10:00,38.8,30.6,29.75,WNW,293,0.0,0.0,72,0.00,,,0.00,WUHU21636XXSP,2013-04-09 06:10:00,
2013-04-09 08:15:00,39.0,30.8,29.75,WNW,293,1.3,1.3,72,0.00,,,0.00,WUHU21636XXSP,2013-04-09 06:15:00,
2013-04-09 08:20:00,39.2,30.7,29.76,WNW,293,0.0,1.3,71,0.00,,,0.00,WUHU21636XXSP,2013-04-09 06:20:00,
2013-04-09 08:25:00,39.4,30.9,29.76,WNW,293,0.0,1.3,71,0.00,,,0.00,WUHU21636XXSP,2013-04-09 06:25:00,
2013-04-09 08:30:00,39.6,31.0,29.76,WNW,293,0.0,0.0,71,0.00,,,0.00,WUHU21636XXSP,2013-04-09 06:30:00,
2013-04-09 08:35:00,39.7,31.1,29.76,WNW,293,0.0,0.0,71,0.00,,,0.00,WUHU21636XXSP,2013-04-09 06:35:00,
2013-04-09 08:40:00,39.7,31.1,29.76,WNW,293,0.0,0.0,71,0.00,,,0.00,WUHU21636XXSP,2013-04-09 06:40:00,
2013-04-09 08:45:00,39.9,31.3,29.76,WNW,293,0.0,0.0,71,0.00,,,0.00,WUHU21636XXSP,2013-04-09 06:45:00,
2013-04-09 08:50:00,40.3,31.7,29.76,WNW,293,0.0,0.0,71,0.00,,,0.00,WUHU21636XXSP,2013-04-09 06:50:00,
2013-04-09 08:55:00,40.6,32.0,29.76,WNW,293,0.0,0.0,71,0.00,,,0.00,WUHU21636XXSP,2013-04-09 06:55:00,
2013-04-09 09:00:00,40.8,32.2,29.76,WNW,293,0.0,0.0,71,0.00,,,0.00,WUHU21636XXSP,2013-04-09 07:00:00,
2013-04-09 09:05:00,41.0,32.0,29.76,WNW,293,0.4,0.4,70,0.00,,,0.00,WUHU21636XXSP,2013-04-09 07:05:00,
2013-04-09 09:10:00,41.4,32.4,29.76,SE,135,1.1,1.1,70,0.00,,,0.00,WUHU21636XXSP,2013-04-09 07:10:00,
2013-04-09 09:15:00,41.5,32.5,29.76,SE,135,0.0,1.1,70,0.00,,,0.00,WUHU21636XXSP,2013-04-09 07:15:00,
2013-04-09 09:20:00,41.5,32.5,29.76,West,270,1.6,1.6,70,0.00,,,0.00,WUHU21636XXSP,2013-04-09 07:20:00,
2013-04-09 09:25:00,41.7,32.4,29.76,WNW,293,0.0,1.6,69,0.00,,,0.00,WUHU21636XXSP,2013-04-09 07:25:00,
2013-04-09 09:30:00,41.5,32.2,29.76,WNW,293,0.0,1.6,69,0.00,,,0.00,WUHU21636XXSP,2013-04-09 07:30:00,
2013-04-09 09:35:00,41.7,32.4,29.76,WNW,293,0.0,0.0,69,0.00,,,0.00,WUHU21636XXSP,2013-04-09 07:35:00,
2013-04-09 09:40:00,41.7,32.7,29.76,WNW,293,0.0,0.0,70,0.00,,,0.00,WUHU21636XXSP,2013-04-09 07:40:00,
2013-04-09 09:45:00,41.7,32.7,29.77,WNW,293,0.0,0.0,70,0.00,,,0.00,WUHU21636XXSP,2013-04-09 07:45:00,
2013-04-09 09:50:00,41.7,32.7,29.77,WNW,293,0.0,0.0,70,0.00,,,0.00,WUHU21636XXSP,2013-04-09 07:50:00,
2013-04-09 09:55:00,41.9,32.9,29.77,WNW,293,0.0,0.0,70,0.00,,,0.00,WUHU21636XXSP,2013-04-09 07:55:00,
2013-04-09 10:00:00,42.1,33.1,29.77,WNW,293,0.0,0.0,70,0.00,,,0.00,WUHU21636XXSP,2013-04-09 08:00:00,
2013-04-09 10:05:00,42.3,33.3,29.77,WNW,293,0.0,0.0,70,0.00,,,0.00,WUHU21636XXSP,2013-04-09 08:05:00,
2013-04-09 10:10:00,42.4,33.4,29.77,WNW,293,0.0,0.0,70,0.00,,,0.00,WUHU21636XXSP,2013-04-09 08:10:00,
2013-04-09 10:15:00,42.6,33.6,29.77,WNW,293,0.9,0.9,70,0.00,,,0.00,WUHU21636XXSP,2013-04-09 08:15:00,
2013-04-09 10:20:00,42.8,33.4,29.77,WNW,293,0.0,0.9,69,0.00,,,0.00,WUHU21636XXSP,2013-04-09 08:20:00,
2013-04-09 10:25:00,43.0,33.6,29.77,WNW,293,0.0,0.9,69,0.00,,,0.00,WUHU21636XXSP,2013-04-09 08:25:00,
2013-04-09 10:30:00,43.2,33.8,29.77,NW,315,0.0,0.0,69,0.00,,,0.00,WUHU21636XXSP,2013-04-09 08:30:00,
2013-04-09 10:35:00,43.3,33.9,29.77,WNW,293,1.6,1.6,69,0.00,,,0.00,WUHU21636XXSP,2013-04-09 08:35:00,
2013-04-09 10:40:00,43.7,33.9,29.77,WNW,293,0.0,1.6,68,0.00,,,0.00,WUHU21636XXSP,2013-04-09 08:40:00,
2013-04-09 10:45:00,44.4,34.2,29.77,WNW,293,0.0,1.6,67,0.00,,,0.00,WUHU21636XXSP,2013-04-09 08:45:00,
2013-04-09 10:50:00,44.8,34.6,29.77,West,270,0.0,0.0,67,0.00,,,0.00,WUHU21636XXSP,2013-04-09 08:50:00,
2013-04-09 10:55:00,45.0,34.4,29.77,SE,135,0.0,0.0,66,0.00,,,0.00,WUHU21636XXSP,2013-04-09 08:55:00,
2013-04-09 11:00:00,45.5,34.5,29.77,SE,135,1.3,1.3,65,0.00,,,0.00,WUHU21636XXSP,2013-04-09 09:00:00,
2013-04-09 11:05:00,45.5,34.5,29.77,ESE,113,0.0,1.3,65,0.00,,,0.00,WUHU21636XXSP,2013-04-09 09:05:00,
2013-04-09 11:10:00,45.3,34.3,29.77,WNW,293,2.9,2.9,65,0.00,,,0.00,WUHU21636XXSP,2013-04-09 09:10:00,
2013-04-09 11:15:00,45.3,34.3,29.77,SE,135,2.7,2.9,65,0.00,,,0.00,WUHU21636XXSP,2013-04-09 09:15:00,
2013-04-09 11:20:00,45.3,34.3,29.77,SE,135,0.4,2.9,65,0.00,,,0.00,WUHU21636XXSP,2013-04-09 09:20:00,
2013-04-09 11:25:00,45.3,34.3,29.77,SE,135,0.0,2.7,65,0.00,,,0.00,WUHU21636XXSP,2013-04-09 09:25:00,
2013-04-09 11:30:00,46.2,35.2,29.77,SE,135,0.0,0.4,65,0.00,,,0.00,WUHU21636XXSP,2013-04-09 09:30:00,
2013-04-09 11:35:00,46.0,35.0,29.77,NW,315,0.0,0.0,65,0.00,,,0.00,WUHU21636XXSP,2013-04-09 09:35:00,
2013-04-09 11:40:00,45.5,35.3,29.77,SE,135,0.0,0.0,67,0.00,,,0.00,WUHU21636XXSP,2013-04-09 09:40:00,
2013-04-09 11:45:00,45.7,35.5,29.77,SE,135,0.0,0.0,67,0.00,,,0.00,WUHU21636XXSP,2013-04-09 09:45:00,
2013-04-09 11:50:00,45.5,35.6,29.77,WNW,293,0.0,0.0,68,0.00,,,0.00,WUHU21636XXSP,2013-04-09 09:50:00,
2013-04-09 11:55:00,45.5,35.6,29.77,WNW,293,2.2,2.2,68,0.00,,,0.00,WUHU21636XXSP,2013-04-09 09:55:00,
2013-04-09 12:00:00,45.9,36.0,29.77,NW,315,0.0,2.2,68,0.00,,,0.00,WUHU21636XXSP,2013-04-09 10:00:00,
2013-04-09 12:05:00,45.5,36.0,29.77,WNW,293,0.0,2.2,69,0.00,,,0.00,WUHU21636XXSP,2013-04-09 10:05:00,
2013-04-09 12:10:00,45.3,36.2,29.76,ESE,113,2.5,2.5,70,0.00,,,0.00,WUHU21636XXSP,2013-04-09 10:10:00,
2013-04-09 12:15:00,45.3,36.2,29.77,NW,315,0.0,2.5,70,0.00,,,0.00,WUHU21636XXSP,2013-04-09 10:15:00,
2013-04-09 12:20:00,45.3,36.5,29.77,WNW,293,0.4,2.5,71,0.00,,,0.00,WUHU21636XXSP,2013-04-09 10:20:00,
2013-04-09 12:25:00,45.1,36.3,29.77,ESE,113,0.0,0.4,71,0.00,,,0.00,WUHU21636XXSP,2013-04-09 10:25:00,
2013-04-09 12:30:00,45.1,36.3,29.77,WNW,293,0.0,0.4,71,0.00,,,0.00,WUHU21636XXSP,2013-04-09 10:30:00,
2013-04-09 12:35:00,45.0,36.6,29.77,SE,135,0.0,0.0,72,0.00,,,0.00,WUHU21636XXSP,2013-04-09 10:35:00,
2013-04-09 12:40:00,45.0,36.9,29.77,ESE,113,0.0,0.0,73,0.00,,,0.00,WUHU21636XXSP,2013-04-09 10:40:00,
2013-04-09 12:45:00,45.0,36.9,29.76,NW,315,0.0,0.0,73,0.00,,,0.00,WUHU21636XXSP,2013-04-09 10:45:00,
2013-04-09 12:50:00,44.8,36.7,29.76,SE,135,2.0,2.0,73,0.00,,,0.00,WUHU21636XXSP,2013-04-09 10:50:00,
2013-04-09 12:55:00,44.8,36.7,29.76,SE,135,3.1,3.1,73,0.00,,,0.00,WUHU21636XXSP,2013-04-09 10:55:00,
2013-04-09 13:00:00,45.0,37.3,29.76,ESE,113,1.8,3.1,74,0.00,,,0.00,WUHU21636XXSP,2013-04-09 11:00:00,
2013-04-09 13:05:00,45.0,37.3,29.76,WNW,293,2.2,3.1,74,0.00,,,0.00,WUHU21636XXSP,2013-04-09 11:05:00,
2013-04-09 13:10:00,45.3,37.6,29.76,SE,135,0.4,2.2,74,0.00,,,0.00,WUHU21636XXSP,2013-04-09 11:10:00,
2013-04-09 13:15:00,45.1,37.4,29.76,SE,135,0.0,2.2,74,0.00,,,0.00,WUHU21636XXSP,2013-04-09 11:15:00,
2013-04-09 13:20:00,45.0,37.3,29.76,SE,135,3.1,3.1,74,0.00,,,0.00,WUHU21636XXSP,2013-04-09 11:20:00,
2013-04-09 13:25:00,44.8,37.4,29.76,SE,135,1.8,3.1,75,0.00,,,0.00,WUHU21636XXSP,2013-04-09 11:25:00,
2013-04-09 13:30:00,45.0,37.6,29.76,ESE,113,2.7,3.1,75,0.00,,,0.00,WUHU21636XXSP,2013-04-09 11:30:00,
2013-04-09 13:35:00,45.0,37.6,29.76,SE,135,2.0,2.7,75,0.00,,,0.00,WUHU21636XXSP,2013-04-09 11:35:00,
2013-04-09 13:40:00,45.3,37.6,29.76,WNW,293,0.9,2.7,74,0.00,,,0.00,WUHU21636XXSP,2013-04-09 11:40:00,
2013-04-09 13:45:00,45.3,37.6,29.76,SE,135,3.4,3.4,74,0.00,,,0.00,WUHU21636XXSP,2013-04-09 11:45:00,
2013-04-09 13:50:00,45.3,37.2,29.76,SE,135,0.4,3.4,73,0.00,,,0.00,WUHU21636XXSP,2013-04-09 11:50:00,
2013-04-09 13:55:00,45.5,37.4,29.76,SE,135,0.0,3.4,73,0.00,,,0.00,WUHU21636XXSP,2013-04-09 11:55:00,
2013-04-09 14:00:00,46.0,37.9,29.75,WNW,293,0.0,0.4,73,0.00,,,0.00,WUHU21636XXSP,2013-04-09 12:00:00,
2013-04-09 14:05:00,46.2,38.4,29.75,SE,135,0.0,0.0,74,0.00,,,0.00,WUHU21636XXSP,2013-04-09 12:05:00,
2013-04-09 14:10:00,46.9,38.8,29.75,SE,135,0.0,0.0,73,0.00,,,0.00,WUHU21636XXSP,2013-04-09 12:10:00,
2013-04-09 14:15:00,47.1,38.6,29.75,SE,135,1.8,1.8,72,0.00,,,0.00,WUHU21636XXSP,2013-04-09 12:15:00,
2013-04-09 14:20:00,47.5,39.0,29.75,SE,135,2.2,2.2,72,0.00,,,0.00,WUHU21636XXSP,2013-04-09 12:20:00,
2013-04-09 14:25:00,47.5,39.0,29.75,NW,315,2.5,2.5,72,0.00,,,0.00,WUHU21636XXSP,2013-04-09 12:25:00,
2013-04-09 14:30:00,47.3,38.8,29.75,WNW,293,0.0,2.5,72,0.00,,,0.00,WUHU21636XXSP,2013-04-09 12:30:00,
2013-04-09 14:35:00,47.1,38.6,29.75,SE,135,0.0,2.5,72,0.00,,,0.00,WUHU21636XXSP,2013-04-09 12:35:00,
2013-04-09 14:40:00,47.3,39.2,29.75,SE,135,0.0,0.0,73,0.00,,,0.00,WUHU21636XXSP,2013-04-09 12:40:00,
2013-04-09 14:45:00,47.8,39.3,29.74,SE,135,0.0,0.0,72,0.00,,,0.00,WUHU21636XXSP,2013-04-09 12:45:00,
2013-04-09 14:50:00,48.0,39.1,29.74,ESE,113,0.0,0.0,71,0.00,,,0.00,WUHU21636XXSP,2013-04-09 12:50:00,
2013-04-09 14:55:00,48.4,38.8,29.74,SE,135,0.0,0.0,69,0.00,,,0.00,WUHU21636XXSP,2013-04-09 12:55:00,
2013-04-09 15:00:00,48.4,39.2,29.74,NW,315,0.0,0.0,70,0.00,,,0.00,WUHU21636XXSP,2013-04-09 13:00:00,
2013-04-09 15:05:00,48.7,39.1,29.73,SE,135,1.3,1.3,69,0.00,,,0.00,WUHU21636XXSP,2013-04-09 13:05:00,
2013-04-09 15:10:00,48.7,38.3,29.73,SE,135,0.0,1.3,67,0.00,,,0.00,WUHU21636XXSP,2013-04-09 13:10:00,
2013-04-09 15:15:00,48.9,38.1,29.73,East,90,0.0,1.3,66,0.00,,,0.00,WUHU21636XXSP,2013-04-09 13:15:00,
2013-04-09 15:20:00,48.7,38.3,29.73,SE,135,0.0,0.0,67,0.00,,,0.00,WUHU21636XXSP,2013-04-09 13:20:00,
2013-04-09 15:25:00,49.1,38.7,29.73,SE,135,0.0,0.0,67,0.00,,,0.00,WUHU21636XXSP,2013-04-09 13:25:00,
2013-04-09 15:30:00,49.5,39.5,29.72,SE,135,0.0,0.0,68,0.00,,,0.00,WUHU21636XXSP,2013-04-09 13:30:00,
2013-04-09 15:35:00,50.0,39.6,29.72,WNW,293,0.9,0.9,67,0.00,,,0.00,WUHU21636XXSP,2013-04-09 13:35:00,
2013-04-09 15:40:00,50.5,39.3,29.72,West,270,0.0,0.9,65,0.00,,,0.00,WUHU21636XXSP,2013-04-09 13:40:00,
2013-04-09 15:45:00,51.4,39.7,29.72,West,270,0.0,0.9,64,0.00,,,0.00,WUHU21636XXSP,2013-04-09 13:45:00,
2013-04-09 15:50:00,51.4,39.3,29.71,ESE,113,0.0,0.0,63,0.00,,,0.00,WUHU21636XXSP,2013-04-09 13:50:00,
2013-04-09 15:55:00,51.4,39.7,29.71,East,90,0.0,0.0,64,0.00,,,0.00,WUHU21636XXSP,2013-04-09 13:55:00,
2013-04-09 16:00:00,51.3,39.2,29.72,ESE,113,0.0,0.0,63,0.00,,,0.00,WUHU21636XXSP,2013-04-09 14:00:00,
2013-04-09 16:05:00,51.1,39.0,29.72,SE,135,0.9,0.9,63,0.00,,,0.00,WUHU21636XXSP,2013-04-09 14:05:00,
2013-04-09 16:10:00,50.5,38.5,29.71,ESE,113,0.0,0.9,63,0.00,,,0.00,WUHU21636XXSP,2013-04-09 14:10:00,
2013-04-09 16:15:00,50.7,38.7,29.71,SE,135,0.0,0.9,63,0.00,,,0.00,WUHU21636XXSP,2013-04-09 14:15:00,
2013-04-09 16:20:00,50.7,38.3,29.71,ESE,113,0.0,0.0,62,0.00,,,0.00,WUHU21636XXSP,2013-04-09 14:20:00,
2013-04-09 16:25:00,50.7,37.8,29.71,ESE,113,0.0,0.0,61,0.00,,,0.00,WUHU21636XXSP,2013-04-09 14:25:00,
2013-04-09 16:30:00,50.7,37.8,29.71,ESE,113,0.0,0.0,61,0.00,,,0.00,WUHU21636XXSP,2013-04-09 14:30:00,
2013-04-09 16:37:00,51.4,38.7,29.71,ESE,112,0.0,0.0,62,0.00,,,0.00,WUHU21636XXSP,2013-04-09 14:37:00,
2013-04-09 16:43:00,52.7,39.2,29.71,SE,135,0.0,0.0,60,0.00,,,0.00,WUHU21636XXSP,2013-04-09 14:43:00,
2013-04-09 16:48:00,53.8,39.2,29.71,WNW,292,0.0,0.0,58,0.00,,,0.00,WUHU21636XXSP,2013-04-09 14:48:00,
2013-04-09 16:53:00,53.8,39.2,29.71,West,270,0.0,0.0,57,0.00,,,0.00,WUHU21636XXSP,2013-04-09 14:53:00,
2013-04-09 16:55:00,53.8,39.0,29.71,SE,135,0.4,0.4,57,0.00,,,0.00,WUHU21636XXSP,2013-04-09 14:55:00,
2013-04-09 17:00:00,53.2,38.9,29.71,SE,135,1.8,1.8,58,0.02,,,0.02,WUHU21636XXSP,2013-04-09 15:00:00,
2013-04-09 17:05:00,53.8,39.5,29.71,NNE,23,0.0,1.8,58,0.02,,,0.02,WUHU21636XXSP,2013-04-09 15:05:00,
2013-04-09 17:10:00,53.8,39.3,29.70,East,97,0.0,2.0,58,0.00,BKN,,0.00,WeatherDisplay:10.37,2013-04-09 15:10:00,
2013-04-09 17:15:00,54.1,39.3,29.70,WNW,293,0.4,0.4,57,0.02,,,0.02,WUHU21636XXSP,2013-04-09 15:15:00,
2013-04-09 17:20:00,54.1,39.2,29.69,WNW,292,0.0,0.0,57,0.00,BKN,,0.00,WeatherDisplay:10.37,2013-04-09 15:20:00,
2013-04-09 17:25:00,54.0,39.2,29.70,WNW,293,2.9,2.9,57,0.02,,,0.02,WUHU21636XXSP,2013-04-09 15:25:00,
2013-04-09 17:30:00,54.0,39.1,29.69,WNW,302,3.0,3.0,57,0.00,BKN,,0.00,WeatherDisplay:10.37,2013-04-09 15:30:00,
2013-04-09 17:35:00,53.6,39.3,29.70,WNW,293,1.6,2.9,58,0.02,,,0.02,WUHU21636XXSP,2013-04-09 15:35:00,
2013-04-09 17:40:00,53.6,39.2,29.69,WNW,292,1.0,2.0,58,0.00,BKN,,0.00,WeatherDisplay:10.37,2013-04-09 15:40:00,
2013-04-09 17:45:00,54.0,39.2,29.70,ESE,113,0.9,1.6,57,0.02,,,0.02,WUHU21636XXSP,2013-04-09 15:45:00,
2013-04-09 17:50:00,54.0,39.1,29.69,ESE,112,1.0,1.0,57,0.00,FEW,,0.00,WeatherDisplay:10.37,2013-04-09 15:50:00,
2013-04-09 17:55:00,54.3,39.5,29.70,WSW,248,0.0,1.1,57,0.00,,,0.02,WUHU21636XXSP,2013-04-09 15:55:00,
2013-04-09 18:00:00,54.3,39.4,29.69,West,281,0.0,1.0,57,0.00,FEW,,0.00,WeatherDisplay:10.37,2013-04-09 16:00:00,
2013-04-09 18:05:00,54.3,39.0,29.70,WNW,293,1.1,1.1,56,0.00,,,0.02,WUHU21636XXSP,2013-04-09 16:05:00,
2013-04-09 18:10:00,54.3,38.9,29.69,WNW,292,1.0,1.0,56,0.00,FEW,,0.00,WeatherDisplay:10.37,2013-04-09 16:10:00,
2013-04-09 18:15:00,53.2,38.0,29.70,WNW,293,1.3,1.3,56,0.00,,,0.02,WUHU21636XXSP,2013-04-09 16:15:00,
2013-04-09 18:20:00,53.2,37.9,29.69,WNW,292,1.0,1.0,56,0.00,FEW,,0.00,WeatherDisplay:10.37,2013-04-09 16:20:00,
2013-04-09 18:25:00,52.5,37.8,29.70,WNW,293,0.0,1.3,57,0.00,,,0.02,WUHU21636XXSP,2013-04-09 16:25:00,
2013-04-09 18:30:00,52.5,37.7,29.69,WNW,292,0.0,0.0,57,0.00,FEW,,0.00,WeatherDisplay:10.37,2013-04-09 16:30:00,
2013-04-09 18:35:00,52.0,37.8,29.70,WNW,293,0.4,0.4,58,0.00,,,0.02,WUHU21636XXSP,2013-04-09 16:35:00,
2013-04-09 18:40:00,52.0,37.7,29.69,WNW,292,0.0,0.0,58,0.00,FEW,,0.00,WeatherDisplay:10.37,2013-04-09 16:40:00,
2013-04-09 18:45:00,51.4,37.6,29.70,WNW,293,0.0,1.3,59,0.00,,,0.02,WUHU21636XXSP,2013-04-09 16:45:00,
2013-04-09 18:50:00,51.4,37.6,29.69,WNW,292,0.0,1.0,59,0.00,FEW,,0.00,WeatherDisplay:10.37,2013-04-09 16:50:00,
2013-04-09 18:55:00,51.1,37.8,29.70,WNW,293,0.0,0.0,60,0.00,,,0.02,WUHU21636XXSP,2013-04-09 16:55:00,
2013-04-09 19:00:00,51.1,37.7,29.69,WNW,292,0.0,0.0,60,0.00,FEW,,0.00,WeatherDisplay:10.37,2013-04-09 17:00:00,
2013-04-09 19:05:00,50.5,37.6,29.70,WNW,293,0.0,0.0,61,0.00,,,0.02,WUHU21636XXSP,2013-04-09 17:05:00,
2013-04-09 19:10:00,50.5,37.6,29.69,WNW,292,0.0,0.0,61,0.00,FEW,,0.00,WeatherDisplay:10.37,2013-04-09 17:10:00,
2013-04-09 19:15:00,50.4,37.6,29.70,WNW,293,0.0,0.9,61,0.00,,,0.02,WUHU21636XXSP,2013-04-09 17:15:00,
2013-04-09 19:20:00,50.4,37.4,29.69,WNW,292,0.0,1.0,61,0.00,FEW,,0.00,WeatherDisplay:10.37,2013-04-09 17:20:00,
2013-04-09 19:25:00,49.8,37.4,29.70,WNW,293,1.6,1.6,62,0.00,,,0.02,WUHU21636XXSP,2013-04-09 17:25:00,
2013-04-09 19:30:00,49.8,37.3,29.69,WNW,292,1.0,2.0,62,0.00,FEW,,0.00,WeatherDisplay:10.37,2013-04-09 17:30:00,
2013-04-09 19:35:00,49.6,37.6,29.69,WNW,293,0.0,1.6,63,0.00,,,0.02,WUHU21636XXSP,2013-04-09 17:35:00,
2013-04-09 19:40:00,49.6,37.6,29.68,WNW,292,0.0,0.0,63,0.00,FEW,,0.00,WeatherDisplay:10.37,2013-04-09 17:40:00,
2013-04-09 19:45:00,49.3,37.3,29.69,WNW,293,1.8,2.0,63,0.00,,,0.02,WUHU21636XXSP,2013-04-09 17:45:00,
2013-04-09 19:50:00,49.3,37.2,29.68,WNW,292,2.0,2.0,63,0.00,FEW,,0.00,WeatherDisplay:10.37,2013-04-09 17:50:00,
2013-04-09 19:55:00,48.9,37.4,29.70,WNW,293,0.0,1.8,64,0.00,,,0.02,WUHU21636XXSP,2013-04-09 17:55:00,
2013-04-09 20:00:00,48.9,37.3,29.69,NW,305,0.0,2.0,64,0.00,FEW,,0.00,WeatherDisplay:10.37,2013-04-09 18:00:00,
2013-04-09 20:05:00,48.7,37.2,29.70,WNW,293,1.8,1.8,64,0.00,,,0.02,WUHU21636XXSP,2013-04-09 18:05:00,
2013-04-09 20:10:00,48.7,37.1,29.69,WNW,292,2.0,2.0,64,0.00,FEW,,0.00,WeatherDisplay:10.37,2013-04-09 18:10:00,
2013-04-09 20:15:00,48.6,37.1,29.70,WNW,293,0.9,1.8,64,0.00,,,0.02,WUHU21636XXSP,2013-04-09 18:15:00,
2013-04-09 20:20:00,48.6,36.9,29.69,WNW,292,1.0,1.0,64,0.00,FEW,,0.00,WeatherDisplay:10.37,2013-04-09 18:20:00,
2013-04-09 20:25:00,48.4,37.3,29.70,WNW,293,0.0,0.9,65,0.00,,,0.02,WUHU21636XXSP,2013-04-09 18:25:00,
2013-04-09 20:30:00,48.4,37.3,29.70,WNW,293,0.9,0.9,65,0.00,,,0.02,WUHU21636XXSP,2013-04-09 18:30:00,
2013-04-09 20:35:00,48.0,36.9,29.70,WNW,293,0.0,0.9,65,0.00,,,0.02,WUHU21636XXSP,2013-04-09 18:35:00,
2013-04-09 20:40:00,48.0,36.8,29.69,WNW,292,0.0,1.0,65,0.00,SCT,,0.00,WeatherDisplay:10.37,2013-04-09 18:40:00,
2013-04-09 20:45:00,48.0,37.3,29.70,WNW,293,1.6,1.6,66,0.00,,,0.02,WUHU21636XXSP,2013-04-09 18:45:00,
2013-04-09 20:50:00,48.0,37.2,29.69,WNW,292,1.0,2.0,66,0.00,SCT,,0.00,WeatherDisplay:10.37,2013-04-09 18:50:00,
2013-04-09 20:55:00,47.8,37.1,29.70,WNW,293,1.8,2.0,66,0.00,,,0.02,WUHU21636XXSP,2013-04-09 18:55:00,
2013-04-09 21:00:00,47.8,37.0,29.69,WNW,292,2.0,2.0,66,0.00,SCT,,0.00,WeatherDisplay:10.37,2013-04-09 19:00:00,
2013-04-09 21:05:00,47.7,37.4,29.70,WNW,293,0.0,1.8,67,0.00,,,0.02,WUHU21636XXSP,2013-04-09 19:05:00,
2013-04-09 21:10:00,47.5,37.2,29.70,WNW,293,0.0,0.7,67,0.00,,,0.02,WUHU21636XXSP,2013-04-09 19:10:00,
2013-04-09 21:15:00,47.3,37.0,29.70,WNW,293,0.4,0.4,67,0.00,,,0.02,WUHU21636XXSP,2013-04-09 19:15:00,
2013-04-09 21:20:00,47.3,36.9,29.69,WNW,292,0.0,0.0,67,0.00,SCT,,0.00,WeatherDisplay:10.37,2013-04-09 19:20:00,
2013-04-09 21:25:00,46.9,37.0,29.70,WNW,293,1.3,1.3,68,0.00,,,0.02,WUHU21636XXSP,2013-04-09 19:25:00,
2013-04-09 21:30:00,46.9,36.9,29.69,WNW,292,1.0,1.0,68,0.00,SCT,,0.00,WeatherDisplay:10.37,2013-04-09 19:30:00,
2013-04-09 21:35:00,46.9,37.4,29.71,WNW,293,0.0,1.3,69,0.00,,,0.02,WUHU21636XXSP,2013-04-09 19:35:00,
2013-04-09 21:40:00,46.9,37.3,29.70,WNW,292,0.0,1.0,69,0.00,SCT,,0.00,WeatherDisplay:10.37,2013-04-09 19:40:00,
2013-04-09 21:45:00,46.8,37.3,29.71,WNW,293,0.7,0.7,69,0.00,,,0.02,WUHU21636XXSP,2013-04-09 19:45:00,
2013-04-09 21:50:00,46.8,37.1,29.70,WNW,292,1.0,1.0,69,0.00,-RA,,0.00,WeatherDisplay:10.37,2013-04-09 19:50:00,
2013-04-09 21:55:00,46.8,37.3,29.71,WSW,248,0.0,1.6,69,0.00,,,0.02,WUHU21636XXSP,2013-04-09 19:55:00,
2013-04-09 22:00:00,46.8,37.1,29.70,West,274,0.0,2.0,69,0.00,-RA,,0.00,WeatherDisplay:10.37,2013-04-09 20:00:00,
2013-04-09 22:05:00,46.8,37.6,29.71,WNW,293,0.0,0.7,70,0.00,,,0.02,WUHU21636XXSP,2013-04-09 20:05:00,
2013-04-09 22:10:00,46.8,37.5,29.70,WNW,292,0.0,1.0,70,0.00,-RA,,0.00,WeatherDisplay:10.37,2013-04-09 20:10:00,
2013-04-09 22:15:00,46.6,37.4,29.72,WNW,293,0.0,1.6,70,0.00,,,0.02,WUHU21636XXSP,2013-04-09 20:15:00,
2013-04-09 22:20:00,46.6,37.3,29.71,WNW,292,0.0,2.0,70,0.00,-RA,,0.00,WeatherDisplay:10.37,2013-04-09 20:20:00,
2013-04-09 22:25:00,46.4,37.6,29.72,West,270,0.0,5.1,71,0.00,,,0.02,WUHU21636XXSP,2013-04-09 20:25:00,
2013-04-09 22:30:00,46.4,37.5,29.71,SE,146,0.0,5.0,71,0.00,-RA,,0.00,WeatherDisplay:10.37,2013-04-09 20:30:00,
2013-04-09 22:35:00,46.2,37.8,29.71,SE,135,0.7,0.7,72,0.00,,,0.02,WUHU21636XXSP,2013-04-09 20:35:00,
2013-04-09 22:40:00,46.2,37.7,29.70,ESE,120,1.0,1.0,72,0.00,BKN,,0.00,WeatherDisplay:10.37,2013-04-09 20:40:00,
2013-04-09 22:45:00,45.9,38.5,29.71,SE,135,2.0,2.0,75,0.00,,,0.02,WUHU21636XXSP,2013-04-09 20:45:00,
2013-04-09 22:50:00,45.9,38.4,29.70,SE,135,2.0,2.0,75,0.00,BKN,,0.00,WeatherDisplay:10.37,2013-04-09 20:50:00,
2013-04-09 22:55:00,45.5,39.1,29.71,ESE,113,3.6,3.6,78,0.00,,,0.02,WUHU21636XXSP,2013-04-09 20:55:00,
2013-04-09 23:00:00,45.5,39.0,29.70,East,99,3.0,4.0,78,0.02,RA,,0.02,WeatherDisplay:10.37,2013-04-09 21:00:00,
2013-04-09 23:05:00,45.3,39.8,29.71,SE,135,4.7,8.1,81,0.02,,,0.04,WUHU21636XXSP,2013-04-09 21:05:00,
2013-04-09 23:10:00,45.3,39.8,29.70,SE,125,5.0,8.0,81,0.02,-RA,,0.04,WeatherDisplay:10.37,2013-04-09 21:10:00,
2013-04-09 23:15:00,45.0,39.8,29.71,ESE,113,3.1,8.1,82,0.04,,,0.06,WUHU21636XXSP,2013-04-09 21:15:00,
2013-04-09 23:20:00,45.0,39.8,29.70,ESE,108,3.0,3.0,82,0.00,-RA,,0.04,WeatherDisplay:10.37,2013-04-09 21:20:00,
2013-04-09 23:25:00,44.4,39.6,29.71,ESE,113,0.0,3.8,83,0.04,,,0.06,WUHU21636XXSP,2013-04-09 21:25:00,
2013-04-09 23:30:00,44.4,39.6,29.70,ESE,112,0.0,4.0,83,0.00,-RA,,0.04,WeatherDisplay:10.37,2013-04-09 21:30:00,
2013-04-09 23:35:00,44.2,39.4,29.70,SE,135,3.8,3.8,83,0.04,,,0.06,WUHU21636XXSP,2013-04-09 21:35:00,
2013-04-09 23:40:00,44.2,39.4,29.69,SE,135,3.0,4.0,83,0.00,-RA,,0.04,WeatherDisplay:10.37,2013-04-09 21:40:00,
2013-04-09 23:45:00,44.1,39.3,29.70,ESE,113,0.0,3.8,83,0.04,,,0.06,WUHU21636XXSP,2013-04-09 21:45:00,
2013-04-09 23:50:00,44.1,39.2,29.69,SE,124,0.0,1.0,83,0.00,BKN,,0.04,WeatherDisplay:10.37,2013-04-09 21:50:00,
2013-04-09 23:55:00,43.7,38.9,29.71,ESE,113,0.0,1.3,83,0.02,,,0.06,WUHU21636XXSP,2013-04-09 21:55:00,